[[{"header":{"parameterUnit":"m.s-1","parameterCategory":1,"la1":30.2991,"la2":30.254,"lo1":-89.0895,"lo2":-89.0444,"dy":0.0017,"dx":0.0017,"nx":28,"ny":28,"refTime":"2025-07-12T21:00:00:Z","depth":0,"parameterNumber":2,"parameterNumberName":"U-component_of_WINDS"},"data":[0,0,0,0,0,0,0,0,0,0,0,0,0,0,0,0,0,0,0,0,0,0,0,0,0,0,0,0,0,0,0,0,0,0,0,0,0,0,0,0,0,0,0,0,0,0,0,0,0,0,0,0,0,0,0,0,0,0,3.6976,3.6977,0,3.7037,3.7038,3.7039,3.6964,3.6961,3.6958,3.6956,3.7018,3.7022,3.7026,0,0,0,0,0,0,0,0,0,0,0,0,0,3.6792,3.6796,3.6976,3.6977,3.6978,3.7037,3.7038,3.7039,3.6964,3.6961,3.6958,3.6955,3.7017,3.7022,3.7027,0,0,0,0,0,0,0,0,0,0,0,0,0,3.6864,3.6797,3.6976,3.6948,3.6946,3.7037,3.7038,3.7039,3.6965,3.6961,3.6957,3.6953,3.7015,3.7021,3.7027,3.7149,0,0,3.7047,3.7049,0,0,0,0,0,0,0,0,3.686,3.6871,3.6951,3.695,3.6948,3.6989,3.6996,3.7076,3.6966,3.6958,3.6956,3.6951,3.7012,3.7018,3.7039,3.7152,3.7155,3.7047,3.7051,3.7054,3.7056,0,0,0,0,0,0,0,3.6855,3.6868,3.7,3.6952,3.695,3.6931,3.6937,3.7011,3.7007,3.6958,3.6953,3.6961,3.701,3.7033,3.7039,3.7156,3.7047,3.7053,3.7057,3.7059,3.7368,3.7372,0,0,0,0,0,0,3.6854,3.6864,3.6998,3.7002,3.6893,3.6938,3.6944,3.698,3.7006,3.7006,3.6965,3.6958,3.7024,3.7032,3.7041,3.7182,3.7054,3.706,3.7063,3.7364,3.7369,3.7374,0,0,0,0,0,0,3.685,3.6867,3.6996,3.6932,3.6947,3.6945,3.6986,3.6983,3.7006,3.7011,3.701,3.6989,3.7021,3.7032,3.7122,3.7183,3.7063,3.7068,3.7358,3.7365,3.7371,3.7467,0,0,0,0,0,0,3.6845,3.6866,3.6913,3.6934,3.6951,3.7077,3.699,3.6987,3.7017,3.7008,3.7033,3.7033,3.7019,3.7113,3.7128,3.719,3.7073,3.7353,3.7361,3.7369,3.7458,3.7476,3.7491,0,0,0,0,0,3.6839,3.6938,3.6916,3.6932,3.701,3.708,3.709,3.7071,3.7022,3.7069,3.7072,3.7033,3.7175,3.7123,3.7139,3.7204,3.7349,3.7359,3.7369,3.7451,3.7473,3.7491,0,0,0,0,0,0,3.6925,3.6941,3.6916,3.7025,3.7052,3.7068,3.7126,3.7095,3.7137,3.7127,3.7101,3.7108,3.7202,3.7213,3.7154,3.7321,3.7254,3.7267,3.7311,3.7331,3.7347,3.7341,3.7079,0,0,0,0,0,3.6957,3.7014,3.7024,3.7119,3.7134,3.7128,3.7158,3.7141,3.7168,3.7179,3.7188,3.7216,3.7266,3.73,3.7347,3.746,3.7463,3.7513,3.7529,3.7543,3.7554,3.7611,3.7632,3.7406,3.7406,3.7406,0,0,3.7023,3.7039,3.7076,3.7137,3.7156,3.7213,3.7138,3.7204,3.7245,3.7189,3.7273,3.7281,3.7309,3.741,3.7456,3.7422,3.7617,3.7555,3.7566,3.757,3.7623,3.7644,3.7663,3.7413,3.7412,3.7411,0,0,3.7172,3.7191,3.727,3.7291,3.732,3.7315,3.7334,3.7354,3.7357,3.7441,3.7398,3.7448,3.7537,3.7557,3.7579,3.7734,3.7698,3.775,3.7835,3.7891,3.7908,3.7924,3.7975,3.7994,3.7762,3.7762,3.7762,0,3.725,3.7336,3.7315,3.7382,3.7409,3.736,3.7439,3.7459,3.7503,3.7521,3.7484,3.7591,3.7607,3.771,3.7747,3.7769,3.7787,3.7746,3.7908,3.7923,3.7937,3.7986,3.8006,3.7768,3.7767,3.7767,3.7766,0,3.7429,3.7489,3.755,3.7591,3.7625,3.7698,3.7686,3.7723,3.7703,3.7701,3.7785,3.7803,3.785,3.7874,3.7856,3.7974,3.7952,3.7912,3.7843,3.7965,3.801,3.8028,3.7776,3.7774,3.7773,3.7771,0,0,3.7633,3.7661,3.7683,3.7699,3.7728,3.7773,3.7843,3.7889,3.7919,3.7951,3.8006,3.8081,3.8043,3.8068,3.8052,3.8101,3.8217,3.8054,3.8054,3.808,3.8344,3.8371,3.8393,3.8195,3.8198,3.8201,3.834,0,3.7779,3.7899,3.7881,3.7996,3.8049,3.8003,3.8063,3.8086,3.8087,3.8131,3.8131,3.8183,3.8131,3.8145,3.8192,3.8193,3.8269,3.8183,3.8244,3.8246,3.8234,3.8418,3.8448,3.8578,3.8358,3.8361,3.8363,0,3.7965,3.8001,3.8122,3.8138,3.816,3.8214,3.8253,3.8298,3.8321,3.8318,3.8345,3.8319,3.8386,3.8319,3.8409,3.8351,3.8375,3.8379,3.8384,3.8386,3.831,3.8421,3.8619,3.8637,3.8391,3.8389,3.8387,0,3.8097,3.8177,3.8257,3.8274,3.8296,3.8335,3.8346,3.8366,3.8394,3.8428,3.8445,3.8488,3.851,3.8543,3.8528,3.8481,3.862,3.8552,3.8617,3.8617,3.8646,3.8643,3.8847,3.8668,3.8667,3.8667,3.8666,0,3.8259,3.8334,3.8316,3.8366,3.8447,3.8425,3.8506,3.8511,3.8529,3.8578,3.8542,3.8588,3.8567,3.8611,3.86,3.8675,3.8686,3.8683,3.8679,3.8685,3.8684,3.8697,3.8686,3.8672,3.8671,3.867,3.8669,0,3.8419,3.8411,3.8495,3.8509,3.8514,3.8573,3.8584,3.8629,3.8626,3.8688,3.8701,3.8697,3.8747,3.8735,3.8791,3.8783,3.8876,3.8862,3.8867,3.8862,3.8926,3.8919,3.9142,3.9168,3.8976,3.8978,3.8979,0,3.8521,3.8577,3.8596,3.8626,3.8639,3.8688,3.8716,3.8696,3.8726,3.8757,3.8798,3.8845,3.888,3.8962,3.8963,3.9004,3.8989,3.9064,3.8994,3.8997,3.8985,3.898,3.8984,3.9077,3.9079,3.9081,3.9082,0,3.8702,3.8695,3.8736,3.8776,3.881,3.884,3.8867,3.8893,3.8876,3.8911,3.8961,3.8989,3.9045,3.909,3.9128,3.9138,3.9106,3.9104,3.9121,3.9125,3.9124,3.9121,3.8901,3.9099,3.9097,3.9096,3.9095,3.9094,3.8833,3.8879,3.8899,3.8945,3.8963,3.8989,3.9031,3.9033,3.9074,3.9117,3.9104,3.916,3.918,3.9227,3.9242,3.9284,3.9256,3.9281,3.9286,3.9291,3.9297,3.912,3.9292,3.9291,3.9291,3.929,3.929,0,3.9009,3.9019,3.9062,3.91,3.9136,3.9104,3.9131,3.9163,3.9213,3.9235,3.927,3.9326,3.937,3.9374,3.9414,3.9447,3.9434,3.9458,3.9454,3.9456,3.9323,3.9302,3.9468,3.9468,3.9468,3.9468,3.9468,3.9468,3.9104,3.9178,3.9173,3.9256,3.9265,3.9319,3.9337,3.936,3.9376,3.944,3.9476,3.9478,3.9492,3.9533,3.957,3.957,3.9585,3.9615,3.9609,3.9484,3.9466,3.9449,3.9429,3.9619,3.9619,3.9737,3.9739,3.9739]},{"header":{"parameterUnit":"m.s-1","parameterCategory":1,"la1":30.2991,"la2":30.254,"lo1":-89.0895,"lo2":-89.0444,"dy":0.0017,"dx":0.0017,"nx":28,"ny":28,"refTime":"2025-07-12T21:00:00:Z","depth":0,"parameterNumber":3,"parameterNumberName":"V-component_of_WINDS"},"data":[0,0,0,0,0,0,0,0,0,0,0,0,0,0,0,0,0,0,0,0,0,0,0,0,0,0,0,0,0,0,0,0,0,0,0,0,0,0,0,0,0,0,0,0,0,0,0,0,0,0,0,0,0,0,0,0,0,0,3.3098,3.3099,0,3.3134,3.3134,3.3135,3.3097,3.3095,3.3094,3.3093,3.3128,3.313,3.3132,0,0,0,0,0,0,0,0,0,0,0,0,0,3.2995,3.2997,3.3098,3.3099,3.3099,3.3134,3.3134,3.3135,3.3097,3.3095,3.3094,3.3092,3.3127,3.313,3.3133,0,0,0,0,0,0,0,0,0,0,0,0,0,3.3036,3.2998,3.3098,3.3085,3.3084,3.3134,3.3134,3.3135,3.3097,3.3095,3.3093,3.3091,3.3126,3.313,3.3133,3.3198,0,0,3.3143,3.3145,0,0,0,0,0,0,0,0,3.3034,3.304,3.3086,3.3086,3.3085,3.3109,3.3111,3.3156,3.3098,3.3092,3.3093,3.309,3.3123,3.3127,3.3138,3.3199,3.3201,3.3144,3.3146,3.3147,3.3148,0,0,0,0,0,0,0,3.3031,3.3038,3.3112,3.3087,3.3086,3.3076,3.3079,3.3119,3.3119,3.3093,3.309,3.3095,3.3122,3.3135,3.3139,3.3201,3.3144,3.3147,3.3149,3.315,3.3314,3.3316,0,0,0,0,0,0,3.303,3.3036,3.3111,3.3113,3.3053,3.3079,3.3083,3.3103,3.3119,3.3119,3.3097,3.3093,3.313,3.3135,3.314,3.3214,3.3147,3.3151,3.3153,3.3312,3.3315,3.3317,0,0,0,0,0,0,3.3028,3.3037,3.311,3.3074,3.3082,3.3084,3.3106,3.3105,3.3117,3.3122,3.3122,3.3109,3.3129,3.3135,3.3183,3.3215,3.3152,3.3155,3.3309,3.3313,3.3316,3.3365,0,0,0,0,0,0,3.3025,3.3037,3.3062,3.3075,3.3085,3.3153,3.3108,3.3107,3.3124,3.3119,3.3134,3.3134,3.3127,3.3178,3.3186,3.3219,3.3158,3.3306,3.3311,3.3315,3.3361,3.337,3.3378,0,0,0,0,0,3.3022,3.3075,3.3064,3.3073,3.3116,3.3155,3.3161,3.3152,3.3127,3.3151,3.3154,3.3134,3.3211,3.3183,3.3192,3.3226,3.3304,3.3309,3.3314,3.3357,3.3368,3.3377,0,0,0,0,0,0,3.3066,3.3077,3.3064,3.3123,3.3139,3.3149,3.318,3.3165,3.3187,3.3182,3.317,3.3174,3.3224,3.323,3.32,3.3288,3.3253,3.326,3.3282,3.3293,3.3301,3.3298,3.3161,0,0,0,0,0,3.3083,3.3114,3.3121,3.3173,3.3181,3.3179,3.3196,3.3188,3.3203,3.3209,3.3215,3.323,3.3257,3.3276,3.3301,3.3362,3.3363,3.3389,3.3398,3.3405,3.3411,3.344,3.3451,3.3334,3.3334,3.3334,0,0,3.3118,3.3127,3.3148,3.3182,3.3193,3.3224,3.3185,3.3221,3.3243,3.3215,3.3259,3.3265,3.328,3.3334,3.3358,3.3341,3.3443,3.3411,3.3417,3.3419,3.3446,3.3458,3.3467,3.3338,3.3337,3.3336,0,0,3.3197,3.3208,3.3251,3.3262,3.3279,3.3277,3.3287,3.33,3.3301,3.3347,3.3325,3.3351,3.3399,3.341,3.3423,3.3504,3.3485,3.3512,3.3556,3.3585,3.3594,3.3602,3.3629,3.3639,3.3518,3.3519,3.3519,0,3.3238,3.3285,3.3275,3.3311,3.3325,3.3301,3.3343,3.3354,3.3379,3.3389,3.3369,3.3427,3.3436,3.349,3.351,3.3522,3.3531,3.351,3.3594,3.3602,3.3609,3.3634,3.3645,3.3522,3.3521,3.3521,3.3521,0,3.3333,3.3366,3.3398,3.3421,3.3439,3.3479,3.3473,3.3493,3.3483,3.3482,3.3527,3.3537,3.3563,3.3576,3.3567,3.3628,3.3617,3.3596,3.356,3.3624,3.3647,3.3656,3.3526,3.3525,3.3524,3.3523,0,0,3.3441,3.3457,3.3469,3.3478,3.3494,3.3518,3.3555,3.358,3.3596,3.3614,3.3643,3.3683,3.3663,3.3677,3.3668,3.3694,3.3754,3.367,3.367,3.3683,3.382,3.3834,3.3845,3.3743,3.3745,3.3746,3.3818,0,3.3518,3.3583,3.3574,3.3635,3.3663,3.364,3.3671,3.3684,3.3684,3.3708,3.3708,3.3736,3.3709,3.3716,3.3741,3.3742,3.3781,3.3737,3.3768,3.3769,3.3763,3.3858,3.3873,3.3941,3.3827,3.3829,3.383,0,3.3618,3.3637,3.3701,3.371,3.3721,3.375,3.3771,3.3794,3.3807,3.3805,3.382,3.3806,3.3842,3.3807,3.3854,3.3824,3.3836,3.3838,3.3841,3.3842,3.3802,3.3859,3.3962,3.3971,3.3844,3.3843,3.3842,0,3.3687,3.3729,3.3772,3.3781,3.3793,3.3814,3.382,3.383,3.3845,3.3863,3.3872,3.3894,3.3906,3.3923,3.3915,3.3891,3.3963,3.3928,3.3961,3.3961,3.3976,3.3975,3.408,3.3988,3.3988,3.3988,3.3987,0,3.3773,3.3812,3.3803,3.3829,3.3872,3.3861,3.3903,3.3906,3.3916,3.3941,3.3922,3.3946,3.3936,3.3959,3.3953,3.3991,3.3998,3.3996,3.3993,3.3996,3.3996,3.4003,3.3997,3.399,3.399,3.3989,3.3989,0,3.3857,3.3853,3.3898,3.3905,3.3907,3.3938,3.3944,3.3968,3.3966,3.3998,3.4005,3.4003,3.4029,3.4023,3.4052,3.4048,3.4095,3.4088,3.4091,3.4088,3.4121,3.4117,3.4233,3.4246,3.4147,3.4148,3.4149,0,3.3911,3.3941,3.3951,3.3966,3.3973,3.3999,3.4013,3.4003,3.4019,3.4034,3.4056,3.408,3.4098,3.414,3.4141,3.4162,3.4154,3.4193,3.4157,3.4158,3.4151,3.4149,3.415,3.4199,3.42,3.4201,3.4202,0,3.4007,3.4003,3.4025,3.4045,3.4063,3.4078,3.4092,3.4106,3.4096,3.4115,3.4141,3.4155,3.4183,3.4207,3.4226,3.4231,3.4214,3.4214,3.4222,3.4224,3.4223,3.4222,3.4108,3.4211,3.421,3.4209,3.4209,3.4208,3.4076,3.41,3.411,3.4134,3.4143,3.4156,3.4178,3.4179,3.42,3.4222,3.4215,3.4244,3.4253,3.4277,3.4285,3.4306,3.4292,3.4304,3.4307,3.431,3.4313,3.4222,3.431,3.431,3.431,3.431,3.4309,0,3.4169,3.4173,3.4196,3.4215,3.4233,3.4216,3.423,3.4246,3.4272,3.4283,3.4301,3.433,3.4352,3.4353,3.4374,3.4391,3.4383,3.4396,3.4394,3.4395,3.4326,3.4316,3.4401,3.4401,3.4401,3.4401,3.4401,3.4401,3.4219,3.4257,3.4254,3.4297,3.4301,3.4329,3.4338,3.4349,3.4357,3.4389,3.4408,3.4408,3.4415,3.4435,3.4454,3.4454,3.4461,3.4477,3.4473,3.4409,3.44,3.4391,3.4381,3.4479,3.4479,3.454,3.454,3.4541]}]]